Regional Weather Roundup
Issued by NWS Charleston, SC

Current Version | Previous Version | Text Only | Print | Product List | Glossary Off
Versions: 1 2 3 4 5 6 7 8 9 10 11 12 13 14 15 16 17 18 19 20 21 22 23 24 25 26 27 28 29 30 31 32 33 34 35 36 37 38 39 40 41 42 43 44 45 46 47 48 49 50
219 ASUS42 KCHS 041413 RWRCHS REGIONAL WEATHER ROUNDUP NATIONAL WEATHER SERVICE CHARLESTON SC 1000 AM EDT WED MAY 04 2016 NOTE: "FAIR" INDICATES FEW OR NO CLOUDS BELOW 12,000 FEET WITH NO SIGNIFICANT WEATHER AND/OR OBSTRUCTIONS TO VISIBILITY. NOT ALL STATIONS ARE QUALITY CONTROLLED. USE DATA WITH CAUTION... ESPECIALLY DEWPOINT OBSERVATIONS. SCZ027-030-031-034>040-042>050-041500- ...SOUTHEAST SOUTH CAROLINA... CITY SKY/WX TMP DP RH WIND PRES REMARKS N CHARLESTON MOSUNNY 72 62 71 W10 29.72S WATERFRONT PRK N/A 70 64 81 W6 29.71S MOUNT PLEASANT FAIR 72 64 78 W7 29.71F JOHNS ISLAND PTSUNNY 72 64 78 W9 29.73S PINOPOLIS N/A 72 64 78 W12 29.65F MONCKS CORNER FAIR 68 59 73 CALM 29.72S SUMMERVILLE FAIR 72 63 73 W6 29.73S BEAUFORT MCAS MOSUNNY 73 59 61 NW9 29.75S BEAUFORT ARPT FAIR 72 59 64 NW8 29.74S HILTON HEAD IS PTSUNNY 72 61 68 SW6 29.77S WALTERBORO SUNNY 73 55 53 W10 29.74S ALLENDALE FAIR 70 54 56 VRB6 29.74S ...SOUTHERN MIDLANDS AND PEE DEE... CITY SKY/WX TMP DP RH WIND PRES REMARKS GEORGETOWN PTSUNNY 70 64 83 SW7 29.70F KINGSTREE PTSUNNY 70 61 73 SW7 29.70S ORANGEBURG SUNNY 71 54 54 NW9 29.72F BARNWELL FAIR 73 55 53 NW3 29.74F AIKEN FAIR 64 52 63 NW6 29.78F MANNING FAIR 70 59 68 W6 29.70F COLUMBIA SUNNY 71 54 54 NW8 29.72F SUMTER MOSUNNY 69 58 68 VRB6 29.69F FLORENCE MOSUNNY 71 57 61 NE5 29.69F MYRTLE BEACH PTSUNNY 72 61 68 W8 29.71S N MYRTLE BEACH LGT RAIN 71 66 84 W5 29.68S $$ GAZ063-065-086>088-099>101-113>116-118-119-134>141-150-041500- ...SOUTHEAST GEORGIA... CITY SKY/WX TMP DP RH WIND PRES REMARKS SAVANNAH ARPT PTSUNNY 72 58 61 NW12 29.77S HUNTER AAF MOSUNNY 72 63 73 NW12 29.75R FORT STEWART PTSUNNY 71 58 62 NW6 29.77R STATESBORO SUNNY 73 59 60 NW6 29.77F SYLVANIA SUNNY 71 59 65 NW5 29.77S CLAXTON FAIR 72 58 62 W10 29.78F ...CSRA...CENTRAL AND FAR SOUTHEAST GEORGIA... CITY SKY/WX TMP DP RH WIND PRES REMARKS THOMSON SUNNY 66 53 63 NW7 29.82F AUGUSTA-BUSH SUNNY 69 51 52 NW12 29.75F AUGUSTA-DANIEL SUNNY 68 51 54 NW9 29.77F SWAINSBORO FAIR 70 52 52 NW9 29.79S VIDALIA SUNNY 70 54 56 NW8 29.79F EASTMAN FAIR 69 51 52 N5 29.84S HAZLEHURST FAIR 71 56 59 W6 29.80F ALMA SUNNY 71 56 58 NW10G17 29.81R WAYCROSS PTSUNNY 71 61 69 N10 29.81R JESUP CLOUDY 73 63 68 N5 29.80S BAXLEY FAIR 72 57 60 N7 29.81R BRUNSWICK CLOUDY 77 66 69 NW6 29.80R SAINT SIMONS CLOUDY 72 63 73 NW10 29.78R $$ SCZ027-028-034-036>038-045-046-048>050-GAZ119-141-041500- ...LAKE AND SUPPLEMENTAL COASTAL OBSERVATIONS... STATION/POSITION TIME TEMP WIND PRES WAVE SWELL AIR SEA DIR/SP/G HT/PER HT/PER/DIR (UTC) (F) (DEG/KT/KT) (MB) (FT/S) (FT/S/D) WINYAH BAY NOT AVBL LAKE MURRAY 1300 66 310/ 2/ 5 1006.8F ACE BASIN NERRS NOT AVBL FORT PULASKI 1300 70 74 290/ 9/ 11 1007.9R SAPELO ISLAND 1300 72 320/ 10 1008.0S $$ ANZ835-935-AMZ111-154-330-350-352-354-370-450-454-472-041500- ...C-MAN AND BUOY OBSERVATIONS... STATION/POSITION TIME TEMP WIND PRES WAVE SWELL AIR SEA DIR/SP/G HT/PER HT/PER/DIR (UTC) (F) (DEG/KT/KT) (MB) (FT/S) (FT/S/D) BUOY 41004 1350 72 74 280/ 14/ 17 1005.5F 3/ 8 2/ 8 BUOY 41008 NOT AVBL FOLLY BEACH CMAN 1300 70 280/ 6/ 10 1006.6F CAPERS NEARSHORE 1308 69 71 290/ 8/ 14 1006.0F FRIPP NEARSHORE 1308 71 72 310/ 10/ 14 1006.5F STATION/POSITION TIME TEMP WIND PRES WAVE SWELL AIR SEA DIR/SP/G HT/PER HT/PER/DIR (UTC) (F) (DEG/KT/KT) (MB) (FT/S) (FT/S/D) 5E ST. MARYS GA 1321 72 N/A 2/10 FRYING PAN BUOY 1300 73 73 210/ 16/ 19 1004.9F BUOY 41025 1350 71 72 250/ 12/ 16 1004.7F 4/ 7 2/170/ 7 CAPE LOOKOUT NC 1300 70 240/ 9/ 12 1004.0F BUOY 41002 1350 71 74 140/ 10/ 12 1007.6F 5/ 7 5/230/ 7 BUOY 41010 1320 78 78 220/ 12/ 14 1008.8F ST AUGUSTINE FL 1400 75 71 230/ 8/ 10 1009.3R $$

USA.gov is the U.S. government's official web portal to all federal, state and local government web resources and services.